| time (UTC) | temp F | wind direction | speed knots | gust knots | rain 1hr in | rain 24hr in | rain mn in | humidity % | barometer mb |
| 20260906060008 | 75 | 317 | 0.0 | 0.0 | 0.00 | 0.00 | 0.00 | 93 | 1012.2 |
| 20260906054505 | 75 | 317 | 0.0 | 0.0 | 0.00 | 0.00 | 0.00 | 93 | 1012.5 |
| 20260906053003 | 75 | 317 | 0.0 | 0.0 | 0.00 | 0.00 | 0.00 | 92 | 1012.5 |
| 20260906051502 | 75 | 317 | 0.0 | 0.0 | 0.00 | 0.00 | 0.00 | 92 | 1012.7 |
| 20260906050114 | 75 | 317 | 0.0 | 0.0 | 0.00 | 0.00 | 0.00 | 92 | 1013.0 |
| 20260906044558 | 75 | 317 | 0.0 | 0.0 | 0.00 | 0.00 | 0.00 | 91 | 1012.9 |
| 20260906043102 | 76 | 317 | 0.0 | 0.0 | 0.00 | 0.00 | 0.00 | 90 | 1012.8 |
| 20260906041555 | 76 | 317 | 0.0 | 0.0 | 0.00 | 0.00 | 0.00 | 90 | 1012.7 |
| 20260906040053 | 76 | 317 | 0.0 | 0.0 | 0.00 | 0.00 | 0.00 | 89 | 1012.8 |
| 20260906034558 | 76 | 317 | 0.0 | 0.0 | 0.00 | 0.00 | 0.00 | 89 | 1013.0 |
| 20260906033052 | 76 | 317 | 0.0 | 0.0 | 0.00 | 0.00 | 0.00 | 89 | 1012.9 |
| 20260906031616 | 76 | 317 | 0.0 | 0.0 | 0.00 | 0.00 | 0.00 | 89 | 1013.0 |
| 20260906030052 | 76 | 317 | 0.0 | 0.0 | 0.00 | 0.00 | 0.00 | 88 | 1012.8 |
| 20260906024556 | 77 | 317 | 0.0 | 0.0 | 0.00 | 0.00 | 0.00 | 87 | 1013.2 |
| 20260906023106 | 77 | 317 | 0.0 | 0.9 | 0.00 | 0.00 | 0.00 | 87 | 1013.2 |
| 20260906021548 | 77 | 317 | 0.0 | 0.0 | 0.00 | 0.00 | 0.00 | 87 | 1012.9 |
| 20260906020057 | 77 | 317 | 0.0 | 0.0 | 0.00 | 0.00 | 0.00 | 86 | 1012.7 |
| 20260906014548 | 77 | 317 | 0.0 | 0.0 | 0.00 | 0.00 | 0.00 | 86 | 1012.2 |
| 20260906013047 | 77 | 317 | 0.0 | 0.0 | 0.00 | 0.00 | 0.00 | 85 | 1012.1 |
| 20260906011550 | 78 | 317 | 0.0 | 0.0 | 0.00 | 0.00 | 0.00 | 85 | 1012.1 |
| 20260906010046 | 78 | 317 | 0.0 | 0.0 | 0.00 | 0.00 | 0.00 | 83 | 1012.1 |
| 20260906004551 | 78 | 317 | 0.0 | 0.0 | 0.00 | 0.00 | 0.00 | 82 | 1011.9 |
| 20260906003050 | 79 | 317 | 0.0 | 0.0 | 0.00 | 0.00 | 0.00 | 81 | 1011.8 |
| 20260906001546 | 79 | 317 | 0.0 | 0.0 | 0.00 | 0.00 | 0.00 | 81 | 1012.0 |
| 20260906000045 | 79 | 317 | 0.0 | 0.0 | 0.00 | 0.00 | 0.00 | 81 | 1011.7 |
| 20260905234544 | 80 | 317 | 0.0 | 0.0 | 0.00 | 0.00 | 0.00 | 80 | 1011.2 |
| 20260905233048 | 80 | 317 | 0.0 | 0.0 | 0.00 | 0.00 | 0.00 | 78 | 1011.0 |
| 20260905231541 | 81 | 317 | 0.0 | 0.0 | 0.00 | 0.00 | 0.00 | 78 | 1011.1 |
| 20260905230041 | 82 | 317 | 0.0 | 0.0 | 0.00 | 0.00 | 0.00 | 76 | 1011.5 |
| 20260905224540 | 82 | 317 | 0.0 | 0.0 | 0.00 | 0.00 | 0.00 | 76 | 1011.4 |
| 20260905223039 | 81 | 317 | 0.0 | 0.0 | 0.00 | 0.00 | 0.00 | 75 | 1011.5 |
| 20260905221551 | 81 | 317 | 0.0 | 0.0 | 0.00 | 0.00 | 0.00 | 77 | 1011.3 |
| 20260905220040 | 81 | 317 | 0.0 | 0.0 | 0.00 | 0.00 | 0.00 | 77 | 1011.5 |
| 20260905214536 | 81 | 317 | 0.0 | 0.0 | 0.00 | 0.00 | 0.00 | 76 | 1011.8 |
| 20260905213035 | 82 | 317 | 0.0 | 0.0 | 0.00 | 0.00 | 0.00 | 75 | 1011.8 |
| 20260905211535 | 81 | 317 | 0.0 | 0.0 | 0.00 | 0.00 | 0.00 | 74 | 1012.0 |
| 20260905210034 | 80 | 317 | 0.0 | 1.7 | 0.00 | 0.00 | 0.00 | 75 | 1012.1 |
| 20260905204533 | 80 | 329 | 0.0 | 4.3 | 0.00 | 0.00 | 0.00 | 76 | 1012.1 |
| 20260905203034 | 80 | 267 | 1.7 | 6.1 | 0.00 | 0.00 | 0.00 | 74 | 1011.8 |
| 20260905201531 | 81 | 288 | 1.7 | 4.3 | 0.00 | 0.00 | 0.00 | 74 | 1012.2 |
| 20260905200032 | 82 | 327 | 0.9 | 4.3 | 0.00 | 0.00 | 0.00 | 72 | 1012.3 |
| 20260905194530 | 82 | 271 | 0.0 | 6.1 | 0.00 | 0.00 | 0.00 | 69 | 1012.8 |
| 20260905193037 | 82 | 202 | 1.7 | 10.4 | 0.00 | 0.00 | 0.00 | 67 | 1012.7 |
| 20260905191530 | 82 | 302 | 1.7 | 7.8 | 0.00 | 0.00 | 0.00 | 73 | 1013.2 |
| 20260905190039 | 84 | 311 | 5.2 | 11.3 | 0.00 | 0.00 | 0.00 | 72 | 1012.7 |
| 20260905184531 | 88 | 290 | 4.3 | 11.3 | 0.00 | 0.00 | 0.00 | 62 | 1012.4 |
| 20260905183027 | 92 | 292 | 0.0 | 2.6 | 0.00 | 0.00 | 0.00 | 56 | 1011.9 |
| 20260905181526 | 94 | 317 | 1.7 | 7.0 | 0.00 | 0.00 | 0.00 | 54 | 1012.3 |
| 20260905180030 | 94 | 277 | 0.0 | 3.5 | 0.00 | 0.00 | 0.00 | 51 | 1012.2 |
| 20260905174522 | 95 | 48 | 0.0 | 4.3 | 0.00 | 0.00 | 0.00 | 54 | 1012.3 |
| 20260905173020 | 95 | 223 | 1.7 | 7.0 | 0.00 | 0.00 | 0.00 | 54 | 1012.7 |
| 20260905171521 | 94 | 36 | 0.0 | 5.2 | 0.00 | 0.00 | 0.00 | 55 | 1012.6 |
| 20260905170015 | 93 | 18 | 2.6 | 7.8 | 0.00 | 0.00 | 0.00 | 56 | 1013.0 |
| 20260905164511 | 94 | 151 | 0.0 | 2.6 | 0.00 | 0.00 | 0.00 | 57 | 1013.2 |
| 20260905163007 | 93 | 296 | 0.0 | 6.1 | 0.00 | 0.00 | 0.00 | 59 | 1013.4 |
| 20260905161504 | 92 | 21 | 0.0 | 5.2 | 0.00 | 0.00 | 0.00 | 60 | 1013.5 |
| 20260905160001 | 92 | 311 | 0.0 | 2.6 | 0.00 | 0.00 | 0.00 | 62 | 1013.7 |
| 20260905154603 | 91 | 330 | 0.0 | 4.3 | 0.00 | 0.00 | 0.00 | 64 | 1013.8 |
| 20260905153054 | 90 | 327 | 0.0 | 1.7 | 0.00 | 0.00 | 0.00 | 67 | 1014.0 |
| 20260905151552 | 89 | 327 | 0.0 | 3.5 | 0.00 | 0.00 | 0.00 | 70 | 1014.1 |
| 20260905150048 | 88 | 327 | 0.0 | 0.0 | 0.00 | 0.00 | 0.00 | 72 | 1014.1 |
| 20260905144545 | 87 | 327 | 0.0 | 0.0 | 0.00 | 0.00 | 0.00 | 73 | 1014.2 |
| 20260905143041 | 85 | 327 | 0.0 | 4.3 | 0.00 | 0.00 | 0.00 | 75 | 1014.2 |
| 20260905141538 | 84 | 328 | 0.0 | 2.6 | 0.00 | 0.00 | 0.00 | 77 | 1014.3 |
| 20260905140035 | 83 | 325 | 0.0 | 0.9 | 0.00 | 0.00 | 0.00 | 79 | 1014.4 |
| 20260905134532 | 82 | 325 | 0.0 | 2.6 | 0.00 | 0.00 | 0.00 | 81 | 1014.6 |
| 20260905133028 | 81 | 321 | 0.0 | 0.9 | 0.00 | 0.00 | 0.00 | 83 | 1014.6 |
| 20260905131524 | 79 | 321 | 0.0 | 1.7 | 0.00 | 0.00 | 0.00 | 86 | 1014.6 |
| 20260905130022 | 78 | 321 | 0.0 | 0.0 | 0.00 | 0.00 | 0.00 | 89 | 1014.7 |
| 20260905124521 | 77 | 322 | 0.0 | 3.5 | 0.00 | 0.00 | 0.00 | 90 | 1014.5 |
| 20260905123020 | 76 | 5 | 0.0 | 0.9 | 0.00 | 0.00 | 0.00 | 92 | 1014.6 |
| 20260905121519 | 75 | 85 | 0.0 | 0.0 | 0.00 | 0.00 | 0.00 | 93 | 1014.4 |
| 20260905120034 | 75 | 85 | 0.0 | 0.0 | 0.00 | 0.00 | 0.00 | 94 | 1014.4 |
| 20260905114518 | 75 | 85 | 0.0 | 0.0 | 0.00 | 0.00 | 0.00 | 94 | 1014.3 |
| 20260905113016 | 75 | 85 | 0.0 | 0.0 | 0.00 | 0.00 | 0.00 | 94 | 1014.1 |
| 20260905111525 | 75 | 85 | 0.0 | 0.0 | 0.00 | 0.00 | 0.00 | 94 | 1014.0 |
| 20260905110020 | 74 | 85 | 0.0 | 0.0 | 0.00 | 0.00 | 0.00 | 94 | 1013.7 |
| 20260905104514 | 74 | 85 | 0.0 | 0.0 | 0.00 | 0.00 | 0.00 | 93 | 1013.6 |
| 20260905103022 | 74 | 85 | 0.0 | 0.0 | 0.00 | 0.00 | 0.00 | 93 | 1013.5 |
| 20260905101512 | 75 | 85 | 0.0 | 0.0 | 0.00 | 0.00 | 0.00 | 93 | 1013.3 |
| 20260905100011 | 75 | 85 | 0.0 | 0.0 | 0.00 | 0.00 | 0.00 | 93 | 1013.2 |
| 20260905094510 | 75 | 85 | 0.0 | 0.0 | 0.00 | 0.00 | 0.00 | 93 | 1013.2 |
| 20260905093011 | 75 | 85 | 0.0 | 0.0 | 0.00 | 0.00 | 0.00 | 92 | 1013.2 |
| 20260905091509 | 75 | 85 | 0.0 | 0.0 | 0.00 | 0.00 | 0.00 | 93 | 1013.3 |
| 20260905090008 | 75 | 85 | 0.0 | 0.0 | 0.00 | 0.00 | 0.00 | 93 | 1013.3 |
| 20260905084505 | 76 | 85 | 0.0 | 0.0 | 0.00 | 0.00 | 0.00 | 93 | 1013.4 |
| 20260905083007 | 76 | 85 | 0.0 | 0.0 | 0.00 | 0.00 | 0.00 | 92 | 1013.6 |
| 20260905081601 | 76 | 85 | 0.0 | 0.0 | 0.00 | 0.00 | 0.00 | 92 | 1013.6 |
| 20260905080100 | 76 | 85 | 0.0 | 0.0 | 0.00 | 0.00 | 0.00 | 91 | 1013.6 |
| 20260905074559 | 76 | 85 | 0.0 | 0.0 | 0.00 | 0.00 | 0.00 | 91 | 1013.9 |
| 20260905073058 | 76 | 85 | 0.0 | 0.0 | 0.00 | 0.00 | 0.00 | 91 | 1013.9 |
| 20260905071555 | 77 | 85 | 0.0 | 0.0 | 0.00 | 0.00 | 0.00 | 90 | 1014.0 |
| 20260905070058 | 77 | 85 | 0.0 | 0.0 | 0.00 | 0.00 | 0.00 | 91 | 1014.0 |
| 20260905064610 | 77 | 85 | 0.0 | 0.0 | 0.00 | 0.00 | 0.00 | 90 | 1014.1 |
| 20260905063050 | 78 | 85 | 0.0 | 0.0 | 0.00 | 0.00 | 0.00 | 89 | 1014.1 |
| 20260905061548 | 78 | 85 | 0.0 | 0.0 | 0.00 | 0.00 | 0.00 | 89 | 1014.3 |